Location: Unspecified
(0.0000°N, 0.0000°E)
Time: 17:13:45
(UTC+00:00)

Vanguard 2 Rocket - Pass Details

Date: 17 December 2018
Orbit: 554 x 3326 km, 32.9° (Epoch: 17 June)

Event Time Altitude Azimuth Distance (km) Brightness Sun altitude
Rises 11:33:19 0° 327° (NNW) 3,678 9.8 66.0°
Reaches altitude 10° 11:35:46 10° 338° (NNW) 3,005 9.4 66.1°
Maximum altitude 11:42:40 35° 42° (NE) 2,376 9.3 66.4°
Drops below altitude 10° 11:53:58 10° 102° (ESE) 4,972 10.9 66.6°
Sets 11:59:22 0° 109° (ESE) 6,435 11.3 66.6°
